sat.trackr.live / text

‹ back to catalog

NUSAT-42 (M WONENBURGER)

NORAD 56966 · 2023-084AL

PAYLOAD ACTIVE UNKNOWN

§ Identity

Operator
Country
ARGN
Launch date
2023-06-12
Launch site
AFWTR
Launch vehicle
Mass (kg)
RCS (m²)

External: N2YO · Heavens-Above · Gunter

§ Orbital elements

Epoch: 2026-05-25T04:05:14.383968Z

Period
93.25 min
Inclination
97.5690°
Eccentricity
0.0004872
Mean motion
15.44215157 rev/d
Perigee alt
430.4 km
Apogee alt
437.0 km
Semi-major
6,811.8 km
B*
5.0092e-4
RAAN
288.2954°
Arg perigee
341.0409°
Mean anomaly
19.0657°
Rev number
16,452

§ Raw data

NUSAT-42 (M WONENBURGER)1 56966U 23084AL  26145.17030537  .00022952  00000+0  50092-3 0  99912 56966  97.5690 288.2954 0004872 341.0409  19.0657 15.44215157164521

JSON: /api/v1/satellites/56966 · /tle

For live sub-satellite position, see the globe view (requires WebGL).

§ Visibility from observer

Set your observer location to see the next 7 days of passes ≥ 10°. The values pass through the URL so the page stays shareable.

No JS? Fill the form by hand. The geolocation button needs JavaScript.